Regional Weather Roundup
Issued by NWS Boston, MA

Home | Current Version | Previous Version | Text Only | Print | Product List | Glossary On
Versions: 1 2 3 4 5 6 7 8 9 10 11 12 13 14 15 16 17 18 19 20 21 22 23 24 25 26 27
000
ASUS41 KBOX 031310
RWRBOX

REGIONAL WEATHER ROUNDUP
NATIONAL WEATHER SERVICE TAUNTON MA
800 AM EST SAT DEC 03 2016

NOTE:  "FAIR" INDICATES FEW OR NO CLOUDS BELOW 12,000 FEET WITH NO
SIGNIFICANT WEATHER AND/OR OBSTRUCTIONS TO VISIBILITY.

MAZALL-031400-
EASTERN MASSACHUSETTS

CITY           SKY/WX    TMP DP  RH WIND       PRES   REMARKS
BOSTON         CLEAR     39  27  62 W12       29.83R WCI  32
BEVERLY        PTCLDY    39  27  62 NW8       29.81R
LAWRENCE       CLEAR     39  27  62 NW5G17    29.83R
BEDFORD        PTCLDY    38  24  57 W13       29.83R WCI  30
BLUE HILL        N/A     35  25  66 NW21G31   29.79R WCI  24
NORWOOD        PTCLDY    40  26  57 W13       29.83R
MARSHFIELD     CLEAR     39  27  60 NW9G23    29.83R
PLYMOUTH       CLEAR     38  26  62 W8        29.83R
TAUNTON        PTCLDY    40  25  55 W9        29.83R
NEW BEDFORD    PTCLDY    40  26  57 W12       29.83R
$$

MAZALL-031400-
CAPE COD AND THE ISLANDS

CITY           SKY/WX    TMP DP  RH WIND       PRES   REMARKS
FALMOUTH       PTCLDY    39  27  60 MISG      29.80S
HYANNIS        CLEAR     39  26  59 NW10      29.80R
CHATHAM        PTCLDY    42  29  59 NW10G21   29.81R
PROVINCETOWN   PTCLDY    42  30  62 NW25G35   29.81R
NANTUCKET      SUNNY     42  27  55 NW22G30   29.81R
MARTHAS VNYRD  PTCLDY    41  27  57 NW10G23   29.84R
$$

MAZALL-031400-
CENTRAL AND WESTERN MASSACHUSETTS

CITY           SKY/WX    TMP DP  RH WIND       PRES   REMARKS
WORCESTER      CLEAR     34  24  67 W16G28    29.82R WCI  24
FITCHBURG      CLEAR     39  24  55 NW10      29.85R
ORANGE         PTCLDY    36  26  67 W10       29.87R WCI  28
SPRINGFIELD    PTCLDY    37  26  63 NW12      29.89R WCI  29
WESTFIELD      MOCLDY    38  26  62 NW14      29.91R WCI  30
NORTH ADAMS    CLOUDY    36  25  64 W14G28    29.91R WCI  27
PITTSFIELD     CLOUDY    33  25  72 W15       29.90R WCI  23
$$

RIZALL-031400-
RHODE ISLAND

CITY           SKY/WX    TMP DP  RH WIND       PRES   REMARKS
PROVIDENCE     PTCLDY    40  25  55 NW8G20    29.87R
NEWPORT        CLEAR     40  28  62 NW15G26   29.85R WCI  32
BLOCK ISLAND   PTCLDY    41  29  62 NW16G26   29.89R
SMITHFIELD     CLEAR     37  25  61 NW9G17    29.85R WCI  30
WESTERLY       PTCLDY    42  25  50 NW12G23   29.90R
$$

CTZALL-031400-
CONNECTICUT

CITY           SKY/WX    TMP DP  RH WIND       PRES   REMARKS
BRADLEY INTL   MOCLDY    40  26  57 NW18G30   29.92R WCI  31
HARTFORD       PTCLDY    40  27  59 NW13G24   29.93R
BRIDGEPORT     CLEAR     43  28  55 W15G22    29.96R
DANBURY        CLOUDY    39  27  62 W6        29.97R
GROTON         MOCLDY    44  29  55 NW15G23   29.90R
NEW HAVEN      PTCLDY    41  29  62 NW7       29.95R
CHESTER        FAIR      39  27  60 W8G17     29.91R
MERIDEN        PTCLDY    41  28  60 VRB7      29.94R
WILLIMANTIC    MOCLDY    41  27  57 NW10G22   29.91R
OXFORD         MOCLDY    37  25  60 NW6       29.94R
$$

MEZ002-015-021-024-NHZ003-005-008-011-012-014-VTZ005-008-031400-
NORTHERN NEW ENGLAND

CITY           SKY/WX    TMP DP  RH WIND       PRES   REMARKS
PORTLAND ME    PTCLDY    37  27  67 W9        29.77R WCI  30
BANGOR ME      MOCLDY    34  32  92 N13       29.72R WCI  25
CONCORD NH     CLOUDY    39  27  62 NW9G22    29.83R
MANCHESTER NH  MOCLDY    39  26  59 NW9       29.82R
NASHUA NH      MOCLDY    38  27  64 NW12      29.85R WCI  30
PORTSMOUTH NH  PTCLDY    38  27  65 W13       29.79R WCI  30
JAFFREY NH     PTCLDY    35  23  61 W7        29.84R WCI  29
KEENE NH       CLOUDY    37  26  64 CALM      29.88R
BURLINGTON VT  FLURRIES  36  29  75 NW14G22   29.91R WCI  27
MT. WASHINGTON SNOWSHWR  12  12 100 NW53G69     N/A  VSB 0   WCI -14
$$

NYZ052-076-031400-
EASTERN NEW YORK

CITY           SKY/WX    TMP DP  RH WIND       PRES   REMARKS
ALBANY         MOCLDY    37  27  67 NW20G29   29.97R WCI  27
NEW YORK CITY  PTCLDY    44  28  53 NW21      30.01R
$$

ANZALL-031400-
MARINE OBSERVATIONS

STATION/POSITION TIME  TEMP    WIND        PRES    VSBY  WAVE
                       AIR SEA DIR/SP/G                  HT/PER
                 (UTC) (F)     (DEG/KT/KT) (MB)    (MI)  (FT/S)
BOSTON BUOY      1250   42 51  300/ 23/ 27 1008.2R         3/ 4
BUZZARDS BAY     1200   41     300/ 29/ 32 1010.3R
NANTUCKET SOUND  NOT AVBL
MASS BAY-STELLWA 1204   41 50  310/ 19/ 23 1008.5R  1 7/8  2/ 3
ISLE OF SHOALS   1200   39     290/ 25/ 28 1007.2R
S OF BLOCK IS    1255      56                N/A           8/ 6
$$

......................KEY.........................
  SKY/WX - SKY CONDITION/PRESENT WEATHER
  TMP    - TEMPERATURE IN FAHRENHEIT
  DWPT   - DEWPOINT IN FAHRENHEIT
  RH     - RELATIVE HUMIDITY IN PERCENT
  WIND   - DIRECTION AND SPEED IN MPH
  PRES   - MEAN SEA LEVEL PRESSURE IN INCHES OF HG
  WCI    - WIND CHILL INDEX
  VSB    - VISIBILITY IN MILES
  HX     - HEAT INDEX
  TC     - TEMPERATURE IN CELSIUS
  VRB    - VARIABLE WIND DIRECTION
  N/A    - NOT AVAILABLE




USA.gov is the U.S. government's official web portal to all federal, state and local government web resources and services.